Location: New Canada
(47.1017°N, 68.5042°W)
Time: 21:28:14
(UTC+00:00)

RS-44 - Pass Details

Date: 09 April 2023
Orbit: 1175 x 1510 km, 82.5° (Epoch: 02 June)

Event Time Altitude Azimuth Distance (km) Brightness Sun altitude
Rises 06:54:41 0° 341° (NNW) 4,491 ? -27.3°
Reaches altitude 10° 06:58:18 10° 327° (NNW) 3,559 ? -26.9°
Maximum altitude 07:04:09 21° 283° (WNW) 2,851 ? -26.3°
Enters shadow 07:04:37 21° 279° (W) 2,860 ? -26.2°
